Hourly Observations for January 13, 2018

Temp ( °F °C ) Dew Point ( °F °C ) Humidity (%) Winds ( mph kmh ) Pressure ( in mb ) Visibility ( mi km ) Precip ( " mm )
12:53 am 00:53 Cloudy 71 21.7 69 20.6 94 94 Calm 29.97 1015 10 16.09344 0 0
1:53 am 01:53 Cloudy with Light Thunderstorms 72 22.2 67 19.4 84 84 Calm 29.94 1014 6 9.656064 0.03 0.762
2:15 am 02:15 Cloudy with Nearby Thunderstorms 72 22.2 67 19.4 84 84 SE 3 6 29.97 1015 10 16.09344 0.01 0.254
2:38 am 02:38 Cloudy 71 21.7 68 20 90 90 Calm 30 1016 10 16.09344 0.01 0.254
2:53 am 02:53 Cloudy 71 21.7 68 20 90 90 SSE 6 9 29.94 1014 10 16.09344 0.01 0.254
3:53 am 03:53 Mostly Cloudy 72 22.2 69 20.6 91 91 S 8 13 29.94 1014 10 16.09344 0.01 0.254
4:53 am 04:53 Cloudy 72 22.2 69 20.6 91 91 Calm 29.94 1014 10 16.09344 0 0
5:53 am 05:53 Cloudy 72 22.2 68 20 87 87 Calm 29.94 1014 10 16.09344 0.001 0.001
6:53 am 06:53 Mostly Cloudy 72 22.2 69 20.6 91 91 SE 3 6 29.94 1014 7 11.265408 0 0
7:53 am 07:53 Cloudy with Light Rain 74 23.3 70 21.1 88 88 Calm 29.94 1014 9 14.484096 0.001 0.001
8:53 am 08:53 Mostly Cloudy 76 24.4 70 21.1 82 82 S 5 7 29.94 1014 9 14.484096 0.001 0.001
9:53 am 09:53 Mostly Cloudy 79 26.1 70 21.1 74 74 SSW 6 9 29.97 1015 9 14.484096 0 0
10:53 am 10:53 Partly Cloudy 83 28.3 72 22.2 70 70 SW 7 11 29.97 1015 9 14.484096 0 0
11:53 am 11:53 Cloudy 80 26.7 74 23.3 82 82 Calm 29.97 1015 9 14.484096 0.01 0.254
12:53 pm 12:53 Mostly Cloudy 86 30 74 23.3 67 67 SW 8 13 29.94 1014 9 14.484096 0 0
1:53 pm 13:53 Sunny 87 30.6 73 22.8 63 63 SW 10 17 29.91 1013 9 14.484096 0 0
2:07 pm 14:07 Partly Cloudy with Nearby Thunderstorms 87 30.6 72 22.2 61 61 SW 8 13 29.94 1014 9 14.484096 0 0
2:38 pm 14:38 Mostly Cloudy with Thunderstorms 86 30 71 21.7 61 61 SW 10 17 29.94 1014 9 14.484096 0 0
2:53 pm 14:53 Partly Cloudy 85 29.4 72 22.2 65 65 SW 9 15 29.94 1014 9 14.484096 0 0
3:01 pm 15:01 Partly Cloudy with Nearby Thunderstorms 85 29.4 71 21.7 63 63 W 12 19 29.97 1015 9 14.484096 0 0
3:19 pm 15:19 Mostly Cloudy 78 25.6 69 20.6 74 74 NW 9 15 29.97 1015 10 16.09344 0 0
3:53 pm 15:53 Sunny 77 25 68 20 74 74 WNW 7 11 29.94 1014 10 16.09344 0 0
4:53 pm 16:53 Sunny 80 26.7 70 21.1 71 71 Calm 29.91 1013 10 16.09344 0 0
5:53 pm 17:53 Sunny 82 27.8 72 22.2 72 72 S 3 6 29.91 1013 10 16.09344 0 0
6:53 pm 18:53 Sunny 82 27.8 74 23.3 77 77 S 3 6 29.88 1012 10 16.09344 0 0
7:53 pm 19:53 Partly Cloudy 80 26.7 74 23.3 82 82 WSW 3 6 29.91 1013 10 16.09344 0 0
8:53 pm 20:53 Partly Cloudy 81 27.2 72 22.2 74 74 S 5 7 29.91 1013 10 16.09344 0 0
9:53 pm 21:53 Mostly Clear 81 27.2 70 21.1 69 69 SSW 5 7 29.94 1014 10 16.09344 0 0
10:53 pm 22:53 Mostly Cloudy 79 26.1 70 21.1 74 74 SSW 3 6 29.94 1014 10 16.09344 0 0
11:53 pm 23:53 Cloudy 79 26.1 70 21.1 74 74 SSW 5 7 29.94 1014 10 16.09344 0.001 0.001

Powered by AerisWeather

Site Deisgn Provided by Innovations Branding House, Paducah, KY